Find Starlink 36834

NORAD ID: 67959 Int'l Des: 2026-037 Owner: SPXS Country: US Constellation: starlink operational
LEOCIRCULAR

リアルタイム位置

3D地球を読み込み中...

Starlink 36834について

説明を読み込み中...

次回通過

Passes for default location (London). Set your location on the main map for personalized predictions.

高度履歴

Loading altitude history...

軌道要素

1 67959U 26037AD 26119.43079110 .00018420 00000-0 67702-3 0 9998
2 67959 42.9986 263.9254 0001248 282.9017 77.1695 15.27589901 11106
Epoch: Apr 29, 2026 • Age: 13 hours

現在のステータス

高度 486.2 km
速度 7.63 km/s
衛星直下点 40.54°N, 120.7°E
打ち上げ日 Feb 24, 2026
運用期間 0.1 years
タイプ internet

技術仕様

分類 Payload
質量 575.00 kg
乾燥質量 530.00 kg
総質量 575.00 kg
長さ 0.30 m
直径 4.10 m
スパン 29.00 m
形状 Box + pan
製造者 SPXS
バスタイプ Starlink V2MO
フェーズステータス In Orbit
所有者/国 SPXS/US

Most Searched